星链-2229 (STARLINK-2229 )

导读 | 星芒AI

STARLINK-2229 是 SpaceX 星链计划中的一颗低轨通信卫星,属于第 22 批发射的星链卫星群。该卫星部署在约 550 公里的近地轨道,旨在为全球用户提供高速互联网服务。它采用先进的推进系统和激光通信技术,以提升网络连接的稳定性和效率。作为星链星座的一部分,STARLINK-2229 有助于扩大覆盖范围,特别是在偏远和网络基础设施薄弱的地区。

基本信息
目录编号:
47992
目录名称:
STARLINK-2229
国际标识:
2021-024R
轨道中心:
EARTH
卫星名称:
星链-2229
卫星全名:
星链-2229 (STARLINK-2229 )
卫星状态:
已陨落 最后检测时间 2025-02-25
发射日期:
2021-03-24 UTC
国别 :
美国 (US)
星等 :
--
轨道信息
数据来源 国际轨道数据
星历时间: 2025-02-25T11:02:09+0800
轨道信息已过期294天
半长轴: 6517.549km
偏心率: 0.0000203
轨道倾角: 53.017°
近地点辐角 75.122°
升交点赤经 109.827°
平近点角 22.048°
近地点: 139.281km
远地点: 139.547km
周期: 87.274分钟
每日圈数: 16.499711
详细信息
固有亮度:
5
最大亮度:
2.5
卫星平台:
Starlink V1.0
覆盖范围:
全球
运营商:
太空探索技术公司
运营商所在国:
美国
制造商(研发单位):
太空探索技术公司
制造商所在国:
美国
使用方式:
暂无
卫星简介
星链(Starlink)计划是由太空探索技术公司(SpaceX)提出的一个巨型低轨卫星互联网星座项目,计划在2019年至2024年间在太空搭建由约1.2万颗卫星组成的“星链”网络,其中1584颗将部署在地球上空550千米处的近地轨道,并从2020年开始工作。该卫星仍在工作。